Fargo, ND

8:14 AM CST on November 21, 2019 (GMT -0600)
Hector International

Weather History for KFAR - October, 2019

Change the Weather History Date:

Monday, October 21, 2019

  Actual Average Record
Temperature  
Mean Temperature 45 °F 43 °F  
Max Temperature 51 °F 54 °F 87 °F (1947)
Min Temperature 39 °F 33 °F 11 °F (1913)
Degree Days  
Heating Degree Days 20 22  
Month to date heating degree days 415 362  
Since 1 July heating degree days 630 632  
Cooling Degree Days 0 0  
Month to date cooling degree days 0 0  
Year to date cooling degree days 527 548  
Moisture  
Dew Point 42 °F    
Average Humidity 87    
Maximum Humidity 93    
Minimum Humidity 74    
Precipitation  
Precipitation 0.34 in 0.06 in 1.10 in (1900)
Month to date precipitation 3.78 1.60  
Year to date precipitation 28.48 20.20  
Snow  
Snow 0.00 in 0.10 in 3.40 in (1906)
Month to date snowfall 4.5 0.3  
Since 1 July snowfall 4.5 0.3  
Since 1 September snowfall 4.5 0.3  
Snow Depth 0.00 in    
Sea Level Pressure  
Sea Level Pressure 29.62 in    
Wind  
Wind Speed 15 mph ()    
Max Wind Speed 41 mph    
Max Gust Speed 55 mph    
Visibility 9.8 miles    
Events Rain    
T = Trace of Precipitation, MM = Missing Value Source: Averaged Metar Reports

Daily Weather History Graph

Daily Weather History Graph

Search for Another Location

Airport or City:

Astronomy

Oct. 21, 2019 Rise Set
Actual Time 7:53 AM CDT 6:29 PM CDT
Civil Twilight 7:22 AM CDT 7:00 PM CDT
Nautical Twilight 6:47 AM CDT 7:35 PM CDT
Astronomical Twilight 6:11 AM CDT 8:10 PM CDT
Moon No Moon Rise 3:25 PM CDT
Length of Visible Light 11h 37m
Length of Day
10h 36m
Waning Gibbous, 48% of the Moon is Illuminated
Oct 21
Waning Gibbous
Oct 27
New
Nov 4
First Quarter
Nov 12
Full
Nov 19
Last Quarter

Hourly Weather History & Observations

Time (CDT) Temp. Windchill Dew Point Humidity Pressure Visibility Wind Dir Wind Speed Gust Speed Precip Events Conditions
12:53 AM 50.0 °F - 42.1 °F 74% 29.77 in 10.0 mi ENE 8.1 mph - 0.01 in Rain Light Rain
1:53 AM 48.0 °F - 43.0 °F 83% 29.74 in 10.0 mi ENE 6.9 mph - 0.01 in Rain Light Rain
2:53 AM 48.0 °F - 44.1 °F 86% 29.70 in 10.0 mi NE 8.1 mph - 0.02 in   Overcast
3:53 AM 46.9 °F - 44.1 °F 90% 29.70 in 10.0 mi NNE 6.9 mph - 0.00 in Rain Light Rain
4:53 AM 46.9 °F - 44.1 °F 90% 29.67 in 10.0 mi NNE 13.8 mph - 0.03 in Rain Light Rain
5:53 AM 46.9 °F - 44.1 °F 90% 29.69 in 8.0 mi NNE 10.4 mph - 0.08 in Rain Light Rain
6:53 AM 46.9 °F - 44.1 °F 90% 29.67 in 10.0 mi North 13.8 mph - 0.08 in Rain Light Rain
7:53 AM 46.0 °F 39.9 °F 44.1 °F 93% 29.67 in 10.0 mi NNE 13.8 mph - 0.00 in Rain Light Rain
8:53 AM 46.9 °F - 44.1 °F 90% 29.65 in 10.0 mi North 13.8 mph - 0.01 in Rain Light Rain
9:53 AM 46.9 °F - 44.1 °F 90% 29.65 in 10.0 mi North 15.0 mph 24.2 mph 0.01 in Rain Light Rain
10:53 AM 46.9 °F - 44.1 °F 90% 29.63 in 10.0 mi North 9.2 mph - 0.01 in Rain Light Rain
11:53 AM 48.0 °F - 44.1 °F 86% 29.60 in 10.0 mi North 19.6 mph 32.2 mph 0.00 in   Overcast
12:53 PM 48.0 °F - 43.0 °F 83% 29.58 in 10.0 mi North 23.0 mph 35.7 mph 0.00 in Rain Light Rain
1:53 PM 48.9 °F - 43.0 °F 80% 29.55 in 10.0 mi North 27.6 mph 36.8 mph 0.00 in   Overcast
2:50 PM 48.2 °F - 42.8 °F 82% 29.52 in 10.0 mi North 28.8 mph 40.3 mph N/A   Mostly Cloudy
2:53 PM 48.9 °F - 43.0 °F 80% 29.54 in 10.0 mi North 27.6 mph 40.3 mph N/A   Overcast
3:53 PM 48.0 °F - 44.1 °F 86% 29.54 in 9.0 mi North 29.9 mph 40.3 mph 0.00 in Rain Light Rain
4:53 PM 46.9 °F - 43.0 °F 86% 29.55 in 9.0 mi North 28.8 mph 43.7 mph 0.02 in Rain Light Rain
5:51 PM 44.6 °F 34.1 °F 42.8 °F 93% 29.55 in 10.0 mi NNW 34.5 mph 50.6 mph 0.02 in Rain Light Rain
5:53 PM 45.0 °F 34.3 °F 42.1 °F 90% 29.57 in 9.0 mi NNW 36.8 mph 50.6 mph 0.02 in Rain Light Rain
6:51 PM 44.6 °F 34.7 °F 41.0 °F 87% 29.56 in 10.0 mi NNW 29.9 mph 49.5 mph 0.00 in   Overcast
6:53 PM 44.1 °F 33.7 °F 41.0 °F 89% 29.57 in 10.0 mi NNW 32.2 mph 48.3 mph 0.00 in   Overcast
7:53 PM 42.1 °F 31.1 °F 39.0 °F 89% 29.60 in 10.0 mi NNW 31.1 mph 44.9 mph 0.00 in Rain Light Rain
8:53 PM 41.0 °F 29.1 °F 37.9 °F 89% 29.61 in 10.0 mi NNW 34.5 mph 54.1 mph 0.03 in Rain Light Rain
10:53 PM 41.0 °F 29.8 °F 37.9 °F 89% 29.60 in 10.0 mi NNW 29.9 mph 46.0 mph 0.01 in   Overcast
11:53 PM 39.9 °F 29.2 °F 37.0 °F 89% 29.62 in 10.0 mi NNW 25.3 mph 41.4 mph 0.00 in   Overcast